Regional Weather Roundup
Issued by NWS

Current Version | Previous Version | Text Only | Print | Product List | Glossary On
Versions: 1 2 3 4 5 6 7 8 9 10 11 12 13 14 15 16 17 18 19 20 21 22 23 24 25 26 27 28 29 30 31 32 33 34 35 36 37 38 39 40 41 42 43 44 45 46 47 48 49 50
000
ASHW40 PHFO 260343
RWRHI

WEATHER ROUNDUP FOR HAWAII
NATIONAL WEATHER SERVICE HONOLULU HI
500 PM HST WED APR 25 2018

THIS IS AN AUTOMATED REPORT THAT HAS NOT BEEN QUALITY CONTROLLED.

NOTE..."FAIR" INDICATES FEW OR NO CLOUDS BELOW 12,000 FEET WITH NO
SIGNIFICANT WEATHER AND/OR OBSTRUCTIONS TO VISIBILITY.

* - THESE SITES REPORT LIMITED FIELDS
# - BUOY DATA PROVIDED BY PACIFIC ISLANDS OCEAN OBSERVING SYSTEM.

HIZ001>004-260400-
KAUAI-NIIHAU-

CITY           SKY/WX    TMP DP  RH WIND       PRES   REMARKS
LIHUE APT      MOSUNNY   77  68  73 NE18      30.08F
PORT ALLEN*      N/A     79 N/A N/A NE28G36     N/A
POIPU*           N/A     77 N/A N/A NE8G18      N/A
PRINCEVILLE*     N/A     73 N/A N/A E10G17      N/A
KOKOLE POINT*  NOT AVBL
MOLOAA DAIRY*    N/A     75  66  73 NE2G10      N/A
WAIMEA HTS*      N/A     79  57  47 NE3G15      N/A
PUU OPAE*        N/A     72  55  56 SE6G12      N/A
PUU LUA*       NOT AVBL
MAKAHA RIDGE*    N/A     73  64  73 N1G9        N/A
$$

HIZ005>011-260400-
OAHU-

CITY           SKY/WX    TMP DP  RH WIND       PRES   REMARKS
HONOLULU       MOSUNNY   81  63  54 NE16G25   30.02F
KALAELOA       SUNNY     81  63  54 NE13G22   30.03F
KANEOHE MCB    MOSUNNY   78  68  71 NE10      30.03S
WHEELER FIELD  FAIR      77  64  64 NE16      30.05S
BELLOWS*         N/A    N/A N/A N/A NE18        N/A
KAHUKU*          N/A    N/A N/A N/A NE8G17      N/A
WHEELER*         N/A    N/A N/A N/A NE9G20      N/A
WAIANAE HARBOR   N/A    N/A N/A N/A E10G17      N/A
DILLINGHAM*    NOT AVBL
KAHUKU TRN*      N/A     75  72  88 W12G23      N/A
KAWAILOA*        N/A     72  64  78 NE14G26     N/A
KII*             N/A     75  66  73 NE18        N/A
MAKUA RANGE*     N/A     72  55  56 E13G24      N/A
OAHU FOREST NW NOT AVBL
SCHOFIELD BRK*   N/A     64  52  63 NE9         N/A
SCHOFIELD S*   NOT AVBL
WAIANAE VLY*   NOT AVBL
KUAOKALA*        N/A     72  64  78 E22         N/A
HONOULIUULI*   NOT AVBL
MOKUOLOE IS*   NOT AVBL
PALEHUA*         N/A     68  59  73 NE12G24     N/A
WAIAWA PHB*    NOT AVBL
$$

HIZ012>013-260400-
MOLOKAI-

CITY           SKY/WX    TMP DP  RH WIND       PRES   REMARKS
MOLOKAI AIRPT  MOSUNNY   77  68  73 NE13G28   30.04S
KALAUPAPA      NOT AVBL
MAKAPULAPAI*   NOT AVBL
MOLOKAI 1*     NOT AVBL
PUU ALII*        N/A     63  61  93 VRB2G12     N/A
$$

HIZ016-260400-
KAHOOLAWE-

CITY           SKY/WX    TMP DP  RH WIND       PRES   REMARKS
KAHOOLAWE*     NOT AVBL
HAKIOAWA*        N/A     75  68  77 MISG      30.44R
HONOKANAIA*    NOT AVBL
KANELOA*         N/A     77  64  65 E21G32    30.07F
KEALIALALO*    NOT AVBL
LUA MAKIKA*    NOT AVBL
$$

HIZ014>015-260400-
LANAI-

CITY           SKY/WX    TMP DP  RH WIND       PRES   REMARKS
LANAI CITY     FAIR      74  65  73 NE23      30.06S
LANAI 1*       NOT AVBL
$$

HIZ017>028-260400-
MAUI-

CITY           SKY/WX    TMP DP  RH WIND       PRES   REMARKS
KAHULUI        PTSUNNY   78  67  68 NE22G29   30.01S
KAPALUA-W MAUI MOSUNNY   75  66  73 NE16G24   30.03
HANA AIRPORT   NOT AVBL
HANA*            N/A     77 N/A N/A NE7         N/A
HALEAKALA SUMM   N/A     48  41  76 NE5         N/A
MAALAEA BAY*     N/A     79 N/A N/A N22G33      N/A
HALEAKALA*     NOT AVBL
KAUPO GAP*     NOT AVBL
KULA 1*          N/A     60  55  83 W3G9        N/A
$$

HIZ023>026-260400-
BIG ISLAND OF HAWAII COAST AND LOWER SLOPES-

CITY           SKY/WX    TMP DP  RH WIND       PRES   REMARKS
KAILUA KONA    PTSUNNY   81  65  58 SW10      29.97S
HILO           PTSUNNY   79  68  69 NE10      30.03S
HONOKAA*         N/A     72 N/A N/A VRB1        N/A
KAWAIHAE MWT*    N/A     84 N/A N/A W9          N/A
KAWAIHAE*        N/A     79 N/A N/A W6        29.97S
SOUTH POINT*     N/A     73 N/A N/A N14G20      N/A
UPOLU AIRPORT* NOT AVBL
KAMUELA*       PTCLDY    68  61  77 NE16      30.10S
HAKALAU*         N/A     56  53  90 E3G9        N/A
KALOKO-HONOKO*   N/A     82  68  61 SW6G12    29.98R
PALI 2*          N/A     72  57  60 N18G25      N/A
KEALAKOMO*       N/A     82  61  47 NE18G28     N/A
KAUPULEHU*       N/A     77  59  53 NE12G18     N/A
KAPAPALA*      NOT AVBL
LOWER KAHUKU*    N/A     64  61  88 NE2G10      N/A
PUHE CS*         N/A     82  70  65 SW3         N/A
PUHO CS*         N/A     79  69  70 W2G8        N/A
PTA KEAMUKU*     N/A     66  57  72 NE23G33     N/A
WAIKOLOA*        N/A     75  59  57 NE17G29     N/A
$$

HIZ027>028-260400-
BIG ISLAND OF HAWAII INTERIOR AND SUMMMITS-

CITY           SKY/WX    TMP DP  RH WIND       PRES   REMARKS
BRADSHAW FIELD CLOUDY    59  50  72 S9        30.30R
MK VISITOR CEN   N/A     46  37  71 SE5         N/A
MAUNA KEA*       N/A     41   0  17 W14         N/A
MAUNA LOA*       N/A     45  37  76 MISG        N/A
MAUNA LOA 1*   NOT AVBL
PTA KIPUKA*      N/A     63  55  77 SE7G15      N/A
PTA RANGE 17*    N/A     63  55  77 E10G17      N/A
PTA WEST*        N/A     66  55  68 W12         N/A
NENE CABIN*      N/A     52  50  93 E3G9        N/A
AHUMOA*          N/A     60  55  82 S5G12       N/A
PTA PORTABLE*  NOT AVBL
PUU MALI*        N/A     59  41  51 NE17G30     N/A
$$

HIC003-260400-
NORTHWEST ISLANDS-

CITY           SKY/WX    TMP DP  RH WIND       PRES   REMARKS
MIDWAY ISLAND  PTSUNNY   73  64  73 NE15      30.32S
MIDWAY NOS*      N/A     72 N/A N/A MISG      30.31S
FRENCH FRIGATE NOT AVBL
$$

PHZ110>124-180-260400-
BUOY REPORTS

STATION/POSITION TIME  TEMP    WIND        PRES    WAVE   SWELL
                       AIR SEA DIR/SP/G            HT/PER HT/DIR
                 (UTC) (F)     (DEG/KT/KT) (MB)    (FT/S) (FT/D)
BUOY 51001       0310   81 81   60/ 17/ 23 1011.1
BUOY 51101       0250   72 74   60/ 14/ 17 1020.7S   7/ 8   5
BUOY 51100       NOT AVBL
BUOY 51002       0310   78 78   70/ 17/ 23 1014.3
BUOY 51003       0250   77 79   60/ 16/ 17 1015.2F   8/ 8   7/ 70
BUOY 51004       0310   78 78   70/ 16/ 19   N/A
WAIMEA BAY#      NOT AVBL
MOKAPU POINT#    0304      76                N/A     7/ 8   2/360
LANAI#           NOT AVBL
BARBERS PT 2#    NOT AVBL
PAUWELA#         0300      75                N/A     6/ 8   2/340
HILO#            0257      78                N/A     7/ 9   2
KANEOHE BAY#     NOT AVBL
KANEOHE BAY 2#   NOT AVBL
HANALEI#         0252      77                N/A     7/ 8   2/ 50
KAHULUI HARBOR   0318   75 77   20/ 14/ 19 1017.0
HONOLULU HARBOR  0318   78 77   70/ 10/ 18 1016.5
PEARL HARBOR#    0230      77                N/A     3/15   2/170
KILO NALU        NOT AVBL
HILO HARBOR      0318   79 76   30/  8/ 11 1016.8
MOKUOLOE         0236   78 78   60/ 10/ 15 1017.7F
NAWILIWILI       0318   75      40/ 11/ 17 1018.4
WHOTS BUOY       NOT AVBL
BUOY 51028       NOT AVBL
$$

......................KEY........................................
  SKY/WX - SKY CONDITIONS/PRESENT WEATHER
  TMP    - TEMPERATURE IN FAHRENHEIT
  DWPT   - DEWPOINT IN FAHRENHEIT
  RH     - RELATIVE HUMIDITY IN PERCENT
  WIND   - DIRECTION AND SPEED /MPH FOR ISLANDS...KTS FOR BUOYS/
  PRES   - MEAN SEA LEVEL PRESSURE IN INCHES OF HG
  VSB    - VISIBILITY IN MILES
  HX     - HEAT INDEX
  WCI    - WIND CHILL INDEX
  VRB    - VARIABLE WIND DIRECTION
  N/A    - NOT AVAILABLE




USA.gov is the U.S. government's official web portal to all federal, state and local government web resources and services.